This demonstration page uses our WeatherBlox Daily Observations layout. Learn more.

Left ArrowRight Arrow

39.01783, -85.05884

Hourly Observations for May 24, 2019

Temp ( °F °C ) Dew Point ( °F °C ) Humidity (%) Winds ( mph kmh ) Pressure ( in mb ) Visibility ( mi km ) Precip ( " mm )
12:52 am 00:52 Mostly Cloudy 72 22.2 69 20.6 91 91 SW 5 7 30.06 1018 8 13 0.00 0.00
1:52 am 01:52 Partly Cloudy 72 22.2 68 20 87 87 W 5 7 30.06 1018 9 14 0.00 0.00
2:52 am 02:52 Mostly Clear with Mist and Fog 70 21.1 68 20 93 93 Calm 30.06 1018 5 8 0.00 0.00
3:52 am 03:52 Partly Cloudy with Mist and Fog 68 20 67 19.4 96 96 Calm 30.06 1018 5 8 0.00 0.00
4:52 am 04:52 Mostly Clear with Mist and Fog 68 20 66 18.9 93 93 Calm 30.07 1018 5 8 0.00 0.00
5:52 am 05:52 Mostly Cloudy 68 20 66 18.9 93 93 Calm 30.09 1019 8 13 0.00 0.00
6:52 am 06:52 Mostly Cloudy 70 21.1 64 17.8 82 82 SE 3 6 30.09 1019 7 11 0.00 0.00
7:52 am 07:52 Mostly Cloudy 72 22.2 67 19.4 84 84 ESE 3 6 30.11 1020 8 13 0.00 0.00
8:52 am 08:52 Cloudy 73 22.8 66 18.9 79 79 SE 6 9 30.11 1020 10 16 0.00 0.03
9:52 am 09:52 Mostly Cloudy 76 24.4 67 19.4 74 74 SE 7 11 30.12 1020 10 16 0.00 0.03
10:52 am 10:52 Mostly Cloudy 79 26.1 71 21.7 77 77 SSW 10 17 30.09 1019 9 14 0.00 0.00
11:52 am 11:52 Mostly Cloudy 82 27.8 71 21.7 69 69 WSW 7 11 30.10 1019 10 16 0.00 0.00
12:52 pm 12:52 Mostly Cloudy 83 28.3 69 20.6 63 63 WSW 12 19 30.10 1019 10 16 0.00 0.00
1:52 pm 13:52 Mostly Cloudy 85 29.4 68 20 57 57 W 14 22 30.09 1019 10 16 0.00 0.00
2:52 pm 14:52 Mostly Cloudy 86 30 67 19.4 53 53 SW 10 17 30.07 1018 10 16 0.00 0.00
3:52 pm 15:52 Mostly Cloudy 87 30.6 66 18.9 50 50 W 9 15 30.07 1018 10 16 0.00 0.00
4:52 pm 16:52 Mostly Cloudy 88 31.1 65 18.3 46 46 W 13 20 30.07 1018 10 16 0.00 0.00
5:52 pm 17:52 Partly Cloudy 87 30.6 63 17.2 45 45 WSW 8 13 30.06 1018 10 16 0.00 0.00
6:52 pm 18:52 Mostly Sunny 85 29.4 64 17.8 50 50 SW 8 13 30.04 1017 10 16 0.00 0.00
8:52 pm 20:52 Mostly Sunny 79 26.1 65 18.3 62 62 SSW 7 11 30.01 1016 10 16 0.00 0.00
9:52 pm 21:52 Clear 77 25 63 17.2 62 62 SSW 7 11 29.99 1016 10 16 0.00 0.00
10:52 pm 22:52 Clear 74 23.3 63 17.2 69 69 SSW 7 11 29.99 1016 10 16 0.00 0.00
11:52 pm 23:52 Clear 73 22.8 64 17.8 74 74 SSW 6 9 30.01 1016 10 16 0.00 0.00

Powered by AerisWeather